Regional Weather Roundup
Issued by NWS Northern Indiana

Home | Current Version | Previous Version | Graphics & Text | Print | Product List | Glossary On
Versions: 1 2 3 4 5 6 7 8 9 10 11 12 13 14 15 16 17 18 19 20 21 22 23 24 25 26 27 28 29 30 31 32 33 34 35 36 37 38 39 40 41 42 43 44 45 46 47 48 49 50
000
ASUS43 KIWX 251900
RWRIWX

KIWX WEATHER ROUNDUP
NATIONAL WEATHER SERVICE NORTHERN INDIANA
300 PM EDT THU MAY 25 2017

NOTE: "FAIR" INDICATES FEW OR NO CLOUDS BELOW 12,000 FEET WITH NO
SIGNIFICANT WEATHER AND/OR OBSTRUCTIONS TO VISIBILITY.

* THESE STATIONS ARE NOT UNDER NWS QUALITY CONTROL. THEY ALSO MAY NOT
  REPORT WEATHER SUCH AS PRECIPITATION OR FOG.

INZ001>027-252000-
NORTHERN INDIANA

CITY           SKY/WX    TMP DP  RH WIND       PRES   REMARKS
GARY*          MOSUNNY   64  54  68 N12G23    29.64S
MICHIGAN CITY* CLOUDY    50  50 100 NW7       29.64S
SOUTH BEND     CLOUDY    58  55  90 NW13      29.60R
ELKHART*       CLOUDY    59  55  88 NW6       29.57S
GOSHEN         CLOUDY    60  55  83 NW13      29.56R
MONTICELLO*    CLOUDY    59  55  84 NW18      29.62R
FORT WAYNE     CLOUDY    62  57  83 NW13      29.53S

$$
INZ028>050-252000-
CENTRAL INDIANA

CITY           SKY/WX    TMP DP  RH WIND       PRES   REMARKS
LAFAYETTE      CLOUDY    61  56  83 NW16      29.62R
KOKOMO*        CLOUDY    60  56  86 NW15G23   29.60R
MUNCIE*        CLOUDY    61  57  87 NW15      29.56R
INDIANAPOLIS   CLOUDY    62  55  77 NW15      29.61R

$$
MIZ043>046-050>051-056>058-064>065-071>073-077>080-252000-
SOUTHWEST LOWER MICHIGAN

CITY           SKY/WX    TMP DP  RH WIND       PRES   REMARKS
BATTLE CREEK   CLOUDY    63  57  81 N10       29.55S
BENTON HARBOR  CLOUDY    56  51  84 NW7       29.59F
COLDWATER*     CLOUDY    61  58  91 NW8       29.54S
HILLSDALE*     CLOUDY    61  55  82 N9        29.52S HAZE
HOLLAND        CLOUDY    62  55  77 NW9       29.58R
GRAND RAPIDS   CLOUDY    64  56  75 N12       29.56S
KALAMAZOO      CLOUDY    64  56  75 N10       29.56S
STURGIS*       CLOUDY    61  57  87 N9        29.54F
THREE RIVERS*  CLOUDY    61  56  85 NW13G18   29.56S

$$
OHZ001>008-015>018-024>025-252000-
NORTHWEST OHIO

CITY           SKY/WX    TMP DP  RH WIND       PRES   REMARKS
DEFIANCE       CLOUDY    62  58  86 N10       29.50S
FINDLAY        CLOUDY    67  58  72 NW13      29.45S
TOLEDO EXPRESS LGT RAIN  60  60 100 N9        29.49R FOG
TOLEDO METCALF CLOUDY    64  60  87 N9        29.48S
LIMA           CLOUDY    67  61  81 NW14G28   29.47R

$$
AND FOR LAKE MICHIGAN COASTAL AND OPEN LAKE BUOY OBSERVATIONS

STATION/POSITION TEMP    WIND        PRES    VSBY  WAVE
                 AIR SEA DIR/SP/G                  HT/PER
                 (F)     (DEG/KT/KT) (MB)    (MI)  (FT/S)
CALUMET HARBOR    57     340/ 12/ 15 1003.5R
MICHIGAN CITY     48     300/ 12/ 14   N/A
BURNS HARBOR      51     330/ 10/ 15 1004.4R
SOUTH LAKE BUOY   46 45  350/ 12/ 16 1002.8          3/ 5
4 MI NW BRIDGMAN  52 56  340/ 12/ 16 1002.9R         4/ 5
MICHIGAN CITY     48 51  320/ 12/ 16   N/A           4/ 5

$$
&&



USA.gov is the U.S. government's official web portal to all federal, state and local government web resources and services.